| time (UTC) | temp C | wind direction | speed KPH | gust KPH | rain 1hr cm | rain 24hr cm | rain mn cm | humidity % | barometer mb |
| 20260502220052 | 27 | 104 | 3.2 | 3.2 | 0.00 | 0.00 | 0.00 | 97 | 1010.0 |
| 20260502214553 | 27 | 104 | 3.2 | 3.2 | 0.00 | 0.00 | 0.00 | 97 | 1010.0 |
| 20260502213053 | 27 | 104 | 3.2 | 3.2 | 0.00 | 0.00 | 0.00 | 97 | 1010.0 |
| 20260502211553 | 27 | 111 | 3.2 | 3.2 | 0.00 | 0.00 | 0.00 | 97 | 1010.0 |
| 20260502210053 | 27 | 111 | 3.2 | 3.2 | 0.00 | 0.00 | 0.00 | 97 | 1010.0 |
| 20260502204553 | 27 | 111 | 3.2 | 3.2 | 0.00 | 0.00 | 0.00 | 97 | 1010.0 |
| 20260502203053 | 27 | 111 | 3.2 | 3.2 | 0.00 | 0.00 | 0.00 | 97 | 1010.0 |
| 20260502201552 | 27 | 108 | 3.2 | 3.2 | 0.00 | 0.00 | 0.00 | 97 | 1010.0 |
| 20260502200053 | 27 | 108 | 3.2 | 3.2 | 0.00 | 0.00 | 0.00 | 97 | 1010.0 |
| 20260502194552 | 27 | 108 | 3.2 | 3.2 | 0.00 | 0.00 | 0.00 | 97 | 1010.0 |
| 20260502193052 | 27 | 108 | 3.2 | 3.2 | 0.00 | 0.00 | 0.00 | 97 | 1010.0 |
| 20260502191553 | 27 | 128 | 3.2 | 3.2 | 0.00 | 0.00 | 0.00 | 97 | 1010.0 |
| 20260502190053 | 27 | 128 | 3.2 | 3.2 | 0.00 | 0.00 | 0.00 | 97 | 1010.0 |
| 20260502184553 | 28 | 128 | 3.2 | 3.2 | 0.00 | 0.00 | 0.00 | 97 | 1010.0 |
| 20260502183052 | 28 | 128 | 3.2 | 3.2 | 0.00 | 0.00 | 0.00 | 97 | 1010.0 |
| 20260502181552 | 27 | 120 | 1.6 | 1.6 | 0.00 | 0.00 | 0.00 | 97 | 1011.0 |
| 20260502163053 | 28 | 207 | 0.0 | 1.6 | 0.00 | 0.00 | 0.00 | 96 | 1011.0 |
| 20260502161552 | 28 | 351 | 0.0 | 1.6 | 0.00 | 0.00 | 0.00 | 96 | 1012.0 |
| 20260502151553 | 28 | 25 | 1.6 | 1.6 | 0.00 | 0.00 | 0.00 | 95 | 1012.0 |
| 20260502123052 | 28 | 261 | 1.6 | 0.0 | 0.00 | 0.00 | 0.00 | 95 | 1011.0 |
| 20260502121552 | 28 | 237 | 1.6 | 0.0 | 0.00 | 0.00 | 0.00 | 95 | 1010.0 |
| 20260502114552 | 28 | 252 | 1.6 | 1.6 | 0.00 | 0.00 | 0.00 | 94 | 1010.0 |
| 20260502113053 | 29 | 252 | 1.6 | 1.6 | 0.13 | 0.00 | 0.00 | 94 | 1010.0 |
| 20260502111552 | 28 | 231 | 3.2 | 4.8 | 0.00 | 0.00 | 0.00 | 92 | 1009.0 |
| 20260502110101 | 28 | 231 | 3.2 | 4.8 | 0.00 | 0.00 | 0.00 | 93 | 1009.0 |
| 20260502104600 | 28 | 231 | 3.2 | 4.8 | 0.00 | 0.00 | 0.00 | 92 | 1009.0 |
| 20260502103101 | 28 | 231 | 3.2 | 4.8 | 0.00 | 0.00 | 0.00 | 92 | 1009.0 |
| 20260502101559 | 28 | 209 | 4.8 | 6.4 | 0.00 | 0.00 | 0.00 | 89 | 1009.0 |
| 20260502100108 | 28 | 209 | 4.8 | 6.4 | 0.00 | 0.00 | 0.00 | 90 | 1009.0 |
| 20260502090117 | 28 | 188 | 1.6 | 3.2 | 0.00 | 0.00 | 0.00 | 87 | 1008.0 |
| 20260502070104 | 28 | 188 | 1.6 | 3.2 | 0.00 | 0.00 | 0.00 | 87 | 1009.0 |
| 20260502064600 | 28 | 188 | 1.6 | 3.2 | 0.00 | 0.00 | 0.00 | 87 | 1009.0 |
| 20260502063110 | 28 | 188 | 1.6 | 3.2 | 0.00 | 0.00 | 0.00 | 87 | 1009.0 |
| 20260502061600 | 28 | 188 | 1.6 | 3.2 | 0.00 | 0.00 | 0.00 | 87 | 1009.0 |
| 20260502054601 | 28 | 188 | 1.6 | 3.2 | 0.00 | 0.00 | 0.00 | 87 | 1009.0 |
| 20260502053102 | 28 | 188 | 1.6 | 3.2 | 0.00 | 0.00 | 0.00 | 87 | 1009.0 |
| 20260502051559 | 28 | 188 | 1.6 | 3.2 | 0.00 | 0.00 | 0.00 | 87 | 1010.0 |
| 20260502050105 | 28 | 188 | 1.6 | 3.2 | 0.00 | 0.00 | 0.00 | 87 | 1010.0 |
| 20260502044600 | 28 | 188 | 1.6 | 3.2 | 0.00 | 0.00 | 0.00 | 87 | 1010.0 |
| 20260502043104 | 28 | 188 | 1.6 | 3.2 | 0.00 | 0.00 | 0.00 | 87 | 1010.0 |
| 20260502041600 | 28 | 188 | 1.6 | 3.2 | 0.00 | 0.00 | 0.00 | 87 | 1011.0 |
| 20260502040104 | 28 | 188 | 1.6 | 3.2 | 0.00 | 0.00 | 0.00 | 87 | 1011.0 |
| 20260502034559 | 28 | 188 | 1.6 | 3.2 | 0.00 | 0.00 | 0.00 | 87 | 1011.0 |
| 20260502033101 | 28 | 188 | 1.6 | 3.2 | 0.00 | 0.00 | 0.00 | 87 | 1011.0 |
| 20260502031558 | 28 | 188 | 1.6 | 3.2 | 0.00 | 0.00 | 0.00 | 87 | 1011.0 |
| 20260502030103 | 28 | 188 | 1.6 | 3.2 | 0.00 | 0.00 | 0.00 | 87 | 1011.0 |
| 20260502024559 | 28 | 188 | 1.6 | 3.2 | 0.00 | 0.00 | 0.00 | 87 | 1011.0 |
| 20260502023059 | 28 | 188 | 1.6 | 3.2 | 0.00 | 0.00 | 0.00 | 87 | 1011.0 |
| 20260502021558 | 28 | 188 | 1.6 | 3.2 | 0.00 | 0.00 | 0.00 | 87 | 1011.0 |
| 20260502020100 | 28 | 188 | 1.6 | 3.2 | 0.00 | 0.00 | 0.00 | 87 | 1011.0 |
| 20260502014557 | 28 | 188 | 1.6 | 3.2 | 0.00 | 0.00 | 0.00 | 87 | 1011.0 |
| 20260502013059 | 28 | 188 | 1.6 | 3.2 | 0.00 | 0.00 | 0.00 | 87 | 1011.0 |
| 20260502011557 | 28 | 188 | 1.6 | 3.2 | 0.00 | 0.00 | 0.00 | 87 | 1011.0 |
| 20260502004558 | 28 | 188 | 1.6 | 3.2 | 0.00 | 0.00 | 0.00 | 87 | 1011.0 |
| 20260502003059 | 28 | 188 | 1.6 | 3.2 | 0.00 | 0.00 | 0.00 | 87 | 1011.0 |
| 20260502001557 | 27 | 88 | 3.2 | 4.8 | 0.00 | 0.00 | 0.00 | 92 | 1011.0 |
| 20260501234557 | 27 | 104 | 1.6 | 4.8 | 0.00 | 0.00 | 0.00 | 92 | 1011.0 |
| 20260501233058 | 27 | 104 | 1.6 | 4.8 | 0.00 | 0.00 | 0.00 | 92 | 1011.0 |
| 20260501231557 | 26 | 77 | 4.8 | 4.8 | 0.00 | 0.00 | 0.00 | 94 | 1011.0 |
| 20260501230026 | 26 | 77 | 4.8 | 4.8 | 0.00 | 0.00 | 0.00 | 95 | 1011.0 |
| 20260501224526 | 26 | 77 | 4.8 | 4.8 | 0.00 | 0.00 | 0.00 | 94 | 1011.0 |
| 20260501223026 | 26 | 77 | 4.8 | 4.8 | 0.00 | 0.00 | 0.00 | 95 | 1011.0 |
| 20260501221526 | 26 | 75 | 4.8 | 4.8 | 0.00 | 0.00 | 0.00 | 94 | 1011.0 |